Home > Weather > Coffs Harbour > Past weeks

Flag for Australia Past Weather in Coffs Harbour, New South Wales, Australia — Yesterday and Last 2 Weeks

Now
50 °F

Cool.


Feels Like: 45 °F
Forecast: 55 / 67 °F
Wind: 13 mph from Northwest

Location: Tamworth Airport AWS

Current Time: Aug 25, 2016 at 2:19:33 AM

Latest Report: Aug 25, 2016 at 1:00 AM


Visibility: N/A

Pressure: 29.79 "Hg

Humidity: 84%

Dew Point: 45 °F

Location of Coffs HarbourLocation

Past Weather in Coffs Harbour — Graph

°F

Coffs Harbour Temperature Yesterday

Maximum temperature yesterday: 57 °F (at 2:00 PM)
Minimum temperature yesterday: 50 °F (at 5:00 AM)
Average temperature yesterday: 53 °F

High & Low Weather Summary for the Past Weeks

 TemperatureHumidityPressure
High70 °F (Aug 10, 1:00 PM)92% (Aug 22, 11:00 PM)30.50 "Hg (Aug 22, 11:00 PM)
Low30 °F (Aug 14, 6:00 AM)25% (Aug 15, 3:00 PM)29.72 "Hg (Aug 24, 4:00 PM)
Average50 °F71%30.17 "Hg
* Reported Aug 10 1:00 AM — Aug 25 1:00 AM, Coffs Harbour, Weather by CustomWeather, © 2016

Note: Actual official high and low records may vary slightly from our data, if they occured in-between our weather recording intervals... More about our weather records

Advertising

Coffs Harbour Weather History for the Previous 24 Hours

Scroll right to see more
 ConditionsComfort  
Time TempWeatherWind HumidityBarometerVisibility
1:00 AM
Thu, Aug 25
50 °FCool.13 mph84%29.79 "HgN/A
12:00 AM50 °FOvercast.10 mph85%29.79 "HgN/A
11:00 PM
Wed, Aug 24
51 °FCool.8 mph88%29.79 "HgN/A
10:00 PM51 °FCool.6 mph88%29.76 "HgN/A
9:00 PM52 °FOvercast.14 mph85%29.76 "HgN/A
8:00 PM53 °FCool.8 mph91%29.75 "HgN/A
7:00 PM53 °FCool.6 mph91%29.75 "HgN/A
6:00 PM54 °FLow clouds.6 mph90%29.74 "Hg3 mi
5:00 PM55 °FCool.No wind88%29.72 "HgN/A
4:00 PM56 °FCool.1 mph86%29.72 "HgN/A
3:00 PM56 °FFog.3 mph83%29.74 "Hg4 mi
2:00 PM57 °FCool.No wind78%29.74 "HgN/A
1:00 PM56 °FCool.1 mph79%29.76 "HgN/A
12:00 PM56 °FOvercast.7 mph82%29.78 "HgN/A
11:00 AM55 °FCool.7 mph85%29.79 "HgN/A
10:00 AM54 °FCool.12 mph86%29.81 "HgN/A
5:00 AM50 °FCool.6 mph89%29.85 "HgN/A
4:00 AM51 °FCool.3 mph87%29.86 "HgN/A
3:00 AM51 °FOvercast.8 mph85%29.88 "HgN/A
2:00 AM52 °FCool.10 mph87%29.88 "HgN/A
Weather by CustomWeather, © 2016

See weather overviewHow to use our weather pages